Time,TemperatureF,DewpointF,PressureIn,WindDirection,WindDirectionDegrees,WindSpeedMPH,WindSpeedGustMPH,Humidity,HourlyPrecipIn,Conditions,Clouds,dailyrainin,SoftwareType,DateUTC
2013-03-22 00:00:00,30.6,26.9,30.00,ENE,68,2.0,6.0,86,0.00,,,0.00,VWS V14.00,2013-03-22 05:00:00,
2013-03-22 00:05:00,30.6,26.9,30.00,ENE,68,4.0,6.0,86,0.00,,,0.00,VWS V14.00,2013-03-22 05:05:00,
2013-03-22 00:10:00,30.6,26.9,30.00,NE,45,2.0,5.0,86,0.00,,,0.00,VWS V14.00,2013-03-22 05:10:00,
2013-03-22 00:15:00,30.7,27.0,30.00,NE,45,3.0,7.0,86,0.00,,,0.00,VWS V14.00,2013-03-22 05:15:00,
2013-03-22 00:20:00,30.7,27.0,30.00,ENE,68,4.0,8.0,86,0.00,,,0.00,VWS V14.00,2013-03-22 05:20:00,
2013-03-22 00:25:00,30.8,27.1,30.00,NE,45,3.0,9.0,86,0.00,,,0.00,VWS V14.00,2013-03-22 05:25:00,
2013-03-22 00:30:00,30.8,27.1,30.00,ENE,68,5.0,9.0,86,0.00,,,0.00,VWS V14.00,2013-03-22 05:30:00,
2013-03-22 00:35:00,30.8,27.1,30.00,ENE,68,4.0,8.0,86,0.00,,,0.00,VWS V14.00,2013-03-22 05:35:00,
2013-03-22 00:40:00,30.8,27.1,30.00,NE,45,2.0,6.0,86,0.00,,,0.00,VWS V14.00,2013-03-22 05:40:00,
2013-03-22 00:45:00,30.9,27.2,30.00,ENE,68,2.0,6.0,86,0.00,,,0.00,VWS V14.00,2013-03-22 05:45:00,
2013-03-22 00:50:00,30.9,27.2,30.00,ENE,68,3.0,8.0,86,0.00,,,0.00,VWS V14.00,2013-03-22 05:50:00,
2013-03-22 00:55:00,31.0,27.3,30.00,NE,45,3.0,7.0,86,0.00,,,0.00,VWS V14.00,2013-03-22 05:55:00,
2013-03-22 01:00:00,31.0,27.3,30.00,NE,45,4.0,9.0,86,0.00,,,0.00,VWS V14.00,2013-03-22 06:00:00,
2013-03-22 01:05:00,31.0,27.3,30.00,NE,45,5.0,10.0,86,0.00,,,0.00,VWS V14.00,2013-03-22 06:05:00,
2013-03-22 01:10:00,31.0,27.3,30.00,ENE,68,5.0,10.0,86,0.00,,,0.00,VWS V14.00,2013-03-22 06:10:00,
2013-03-22 01:15:00,31.0,27.3,30.00,NE,45,5.0,9.0,86,0.00,,,0.00,VWS V14.00,2013-03-22 06:15:00,
2013-03-22 01:20:00,31.1,27.4,30.00,NE,45,4.0,9.0,86,0.00,,,0.00,VWS V14.00,2013-03-22 06:20:00,
2013-03-22 01:25:00,31.1,27.7,30.00,NE,45,6.0,10.0,87,0.00,,,0.00,VWS V14.00,2013-03-22 06:25:00,
2013-03-22 01:30:00,31.1,27.4,30.00,ENE,68,4.0,10.0,86,0.00,,,0.00,VWS V14.00,2013-03-22 06:30:00,
2013-03-22 01:35:00,31.1,27.4,30.00,ENE,68,5.0,8.0,86,0.00,,,0.00,VWS V14.00,2013-03-22 06:35:00,
2013-03-22 01:40:00,31.1,27.4,30.00,NE,45,5.0,9.0,86,0.00,,,0.00,VWS V14.00,2013-03-22 06:40:00,
2013-03-22 01:45:00,31.0,27.3,30.00,NE,45,5.0,10.0,86,0.00,,,0.00,VWS V14.00,2013-03-22 06:45:00,
2013-03-22 01:50:00,31.0,27.3,30.00,NE,45,7.0,13.0,86,0.00,,,0.00,VWS V14.00,2013-03-22 06:50:00,
2013-03-22 01:55:00,31.0,27.3,30.01,ENE,68,6.0,10.0,86,0.00,,,0.00,VWS V14.00,2013-03-22 06:55:00,
2013-03-22 02:00:00,31.0,27.3,30.01,NE,45,5.0,11.0,86,0.00,,,0.00,VWS V14.00,2013-03-22 07:00:00,
2013-03-22 02:05:00,31.1,27.4,30.01,ENE,68,5.0,10.0,86,0.00,,,0.00,VWS V14.00,2013-03-22 07:05:00,
2013-03-22 02:10:00,31.1,27.4,30.01,ENE,68,5.0,9.0,86,0.00,,,0.00,VWS V14.00,2013-03-22 07:10:00,
2013-03-22 02:15:00,31.1,27.4,30.00,NE,45,5.0,8.0,86,0.00,,,0.00,VWS V14.00,2013-03-22 07:15:00,
2013-03-22 02:20:00,31.1,27.4,30.00,NE,45,5.0,10.0,86,0.00,,,0.00,VWS V14.00,2013-03-22 07:20:00,
2013-03-22 02:25:00,31.1,27.4,30.00,NE,45,7.0,10.0,86,0.00,,,0.00,VWS V14.00,2013-03-22 07:25:00,
2013-03-22 02:30:00,31.2,27.5,30.01,ENE,68,5.0,9.0,86,0.00,,,0.00,VWS V14.00,2013-03-22 07:30:00,
2013-03-22 02:35:00,31.2,27.5,30.00,ENE,68,4.0,10.0,86,0.00,,,0.00,VWS V14.00,2013-03-22 07:35:00,
2013-03-22 02:40:00,31.2,27.5,30.01,ENE,68,5.0,8.0,86,0.00,,,0.00,VWS V14.00,2013-03-22 07:40:00,
2013-03-22 02:45:00,31.2,27.5,30.00,ENE,68,5.0,10.0,86,0.00,,,0.00,VWS V14.00,2013-03-22 07:45:00,
2013-03-22 02:50:00,31.2,27.5,30.00,NE,45,5.0,12.0,86,0.00,,,0.00,VWS V14.00,2013-03-22 07:50:00,
2013-03-22 02:55:00,31.1,27.7,30.00,ENE,68,7.0,11.0,87,0.00,,,0.00,VWS V14.00,2013-03-22 07:55:00,
2013-03-22 03:00:00,31.1,27.7,30.00,ENE,68,5.0,10.0,87,0.00,,,0.00,VWS V14.00,2013-03-22 08:00:00,
2013-03-22 03:05:00,31.1,27.7,30.00,ENE,68,6.0,10.0,87,0.00,,,0.00,VWS V14.00,2013-03-22 08:05:00,
2013-03-22 03:10:00,31.1,27.7,30.00,NE,45,4.0,10.0,87,0.00,,,0.00,VWS V14.00,2013-03-22 08:10:00,
2013-03-22 03:15:00,31.0,27.9,30.00,NE,45,4.0,9.0,88,0.00,,,0.00,VWS V14.00,2013-03-22 08:15:00,
2013-03-22 03:20:00,31.0,27.9,30.00,NE,45,5.0,9.0,88,0.00,,,0.00,VWS V14.00,2013-03-22 08:20:00,
2013-03-22 03:25:00,31.0,27.9,30.00,ENE,68,6.0,11.0,88,0.00,,,0.00,VWS V14.00,2013-03-22 08:25:00,
2013-03-22 03:30:00,31.0,27.9,30.00,NE,45,5.0,12.0,88,0.00,,,0.00,VWS V14.00,2013-03-22 08:30:00,
2013-03-22 03:35:00,31.0,27.9,30.00,ENE,68,5.0,9.0,88,0.00,,,0.00,VWS V14.00,2013-03-22 08:35:00,
2013-03-22 03:40:00,31.0,28.1,30.00,ENE,68,5.0,9.0,89,0.00,,,0.00,VWS V14.00,2013-03-22 08:40:00,
2013-03-22 03:45:00,31.0,28.1,30.00,ENE,68,6.0,10.0,89,0.00,,,0.00,VWS V14.00,2013-03-22 08:45:00,
2013-03-22 03:50:00,31.0,28.1,30.00,ENE,68,5.0,10.0,89,0.00,,,0.00,VWS V14.00,2013-03-22 08:50:00,
2013-03-22 03:55:00,31.0,28.1,30.00,ENE,68,5.0,10.0,89,0.00,,,0.00,VWS V14.00,2013-03-22 08:55:00,
2013-03-22 04:00:00,31.0,28.1,30.00,ENE,68,7.0,10.0,89,0.00,,,0.00,VWS V14.00,2013-03-22 09:00:00,
2013-03-22 04:05:00,31.0,28.1,30.00,NE,45,5.0,11.0,89,0.00,,,0.00,VWS V14.00,2013-03-22 09:05:00,
2013-03-22 04:10:00,31.1,28.0,30.00,ENE,68,6.0,10.0,88,0.00,,,0.00,VWS V14.00,2013-03-22 09:10:00,
2013-03-22 04:15:00,31.1,28.0,30.00,ENE,68,5.0,8.0,88,0.00,,,0.00,VWS V14.00,2013-03-22 09:15:00,
2013-03-22 04:20:00,31.1,28.0,30.00,ENE,68,6.0,13.0,88,0.00,,,0.00,VWS V14.00,2013-03-22 09:20:00,
2013-03-22 04:25:00,31.2,28.1,30.00,ENE,68,6.0,9.0,88,0.00,,,0.00,VWS V14.00,2013-03-22 09:25:00,
2013-03-22 04:30:00,31.2,28.1,30.00,ENE,68,6.0,10.0,88,0.00,,,0.00,VWS V14.00,2013-03-22 09:30:00,
2013-03-22 04:35:00,31.3,28.2,30.00,ENE,68,6.0,11.0,88,0.00,,,0.00,VWS V14.00,2013-03-22 09:35:00,
2013-03-22 04:40:00,31.3,28.2,30.00,ENE,68,6.0,12.0,88,0.00,,,0.00,VWS V14.00,2013-03-22 09:40:00,
2013-03-22 04:45:00,31.3,27.9,30.00,ENE,68,7.0,12.0,87,0.00,,,0.00,VWS V14.00,2013-03-22 09:45:00,
2013-03-22 04:50:00,31.4,28.0,30.00,NE,45,7.0,15.0,87,0.00,,,0.00,VWS V14.00,2013-03-22 09:50:00,
2013-03-22 04:55:00,31.4,28.0,30.00,ENE,68,5.0,10.0,87,0.00,,,0.00,VWS V14.00,2013-03-22 09:55:00,
2013-03-22 05:00:00,31.4,28.0,30.00,ENE,68,4.0,9.0,87,0.00,,,0.00,VWS V14.00,2013-03-22 10:00:00,
2013-03-22 05:05:00,31.4,28.0,30.00,ENE,68,6.0,10.0,87,0.00,,,0.00,VWS V14.00,2013-03-22 10:05:00,
2013-03-22 05:10:00,31.3,27.9,30.00,NE,45,6.0,10.0,87,0.00,,,0.00,VWS V14.00,2013-03-22 10:10:00,
2013-03-22 05:15:00,31.2,28.1,30.00,NE,45,5.0,9.0,88,0.00,,,0.00,VWS V14.00,2013-03-22 10:15:00,
2013-03-22 05:20:00,31.2,27.8,30.00,ENE,68,5.0,11.0,87,0.00,,,0.00,VWS V14.00,2013-03-22 10:20:00,
2013-03-22 05:25:00,31.1,27.7,29.99,NE,45,6.0,11.0,87,0.00,,,0.00,VWS V14.00,2013-03-22 10:25:00,
2013-03-22 05:30:00,31.0,27.9,29.99,ENE,68,4.0,7.0,88,0.00,,,0.00,VWS V14.00,2013-03-22 10:30:00,
2013-03-22 05:35:00,30.9,27.5,29.99,ENE,68,5.0,10.0,87,0.00,,,0.00,VWS V14.00,2013-03-22 10:35:00,
2013-03-22 05:40:00,30.8,27.4,30.00,ENE,68,6.0,11.0,87,0.00,,,0.00,VWS V14.00,2013-03-22 10:40:00,
2013-03-22 05:45:00,30.7,27.3,30.00,NE,45,5.0,10.0,87,0.00,,,0.00,VWS V14.00,2013-03-22 10:45:00,
2013-03-22 05:50:00,30.6,27.2,30.00,ENE,68,6.0,8.0,87,0.00,,,0.00,VWS V14.00,2013-03-22 10:50:00,
2013-03-22 05:55:00,30.6,27.5,30.00,ENE,68,3.0,8.0,88,0.00,,,0.00,VWS V14.00,2013-03-22 10:55:00,
2013-03-22 06:00:00,30.6,27.5,30.00,NE,45,4.0,7.0,88,0.00,,,0.00,VWS V14.00,2013-03-22 11:00:00,
2013-03-22 06:05:00,30.5,27.4,30.00,ENE,68,4.0,7.0,88,0.00,,,0.00,VWS V14.00,2013-03-22 11:05:00,
2013-03-22 06:10:00,30.5,27.4,30.00,ENE,68,4.0,9.0,88,0.00,,,0.00,VWS V14.00,2013-03-22 11:10:00,
2013-03-22 06:15:00,30.4,27.3,30.01,NE,45,4.0,8.0,88,0.00,,,0.00,VWS V14.00,2013-03-22 11:15:00,
2013-03-22 06:20:00,30.3,27.2,30.01,NE,45,4.0,8.0,88,0.00,,,0.00,VWS V14.00,2013-03-22 11:20:00,
2013-03-22 06:25:00,30.4,27.3,30.01,ENE,68,2.0,5.0,88,0.00,,,0.00,VWS V14.00,2013-03-22 11:25:00,
2013-03-22 06:30:00,30.3,27.2,30.01,ENE,68,4.0,8.0,88,0.00,,,0.00,VWS V14.00,2013-03-22 11:30:00,
2013-03-22 06:35:00,30.3,27.2,30.01,NE,45,4.0,7.0,88,0.00,,,0.00,VWS V14.00,2013-03-22 11:35:00,
2013-03-22 06:40:00,30.3,27.2,30.01,ENE,68,3.0,9.0,88,0.00,,,0.00,VWS V14.00,2013-03-22 11:40:00,
2013-03-22 06:45:00,30.3,27.2,30.01,ENE,68,4.0,9.0,88,0.00,,,0.00,VWS V14.00,2013-03-22 11:45:00,
2013-03-22 06:50:00,30.3,27.2,30.01,ENE,68,3.0,7.0,88,0.00,,,0.00,VWS V14.00,2013-03-22 11:50:00,
2013-03-22 06:55:00,30.3,27.2,30.01,ENE,68,4.0,7.0,88,0.00,,,0.00,VWS V14.00,2013-03-22 11:55:00,
2013-03-22 07:00:00,30.3,27.2,30.02,ENE,68,4.0,8.0,88,0.00,,,0.00,VWS V14.00,2013-03-22 12:00:00,
2013-03-22 07:05:00,30.3,27.2,30.02,NE,45,4.0,7.0,88,0.00,,,0.00,VWS V14.00,2013-03-22 12:05:00,
2013-03-22 07:10:00,30.3,27.2,30.02,NE,45,3.0,7.0,88,0.00,,,0.00,VWS V14.00,2013-03-22 12:10:00,
2013-03-22 07:15:00,30.3,27.2,30.02,NE,45,3.0,6.0,88,0.00,,,0.00,VWS V14.00,2013-03-22 12:15:00,
2013-03-22 07:20:00,30.3,27.2,30.02,NE,45,4.0,8.0,88,0.00,,,0.00,VWS V14.00,2013-03-22 12:20:00,
2013-03-22 07:25:00,30.3,27.2,30.01,NE,45,3.0,6.0,88,0.00,,,0.00,VWS V14.00,2013-03-22 12:25:00,
2013-03-22 07:30:00,30.3,27.2,30.01,NE,45,4.0,8.0,88,0.00,,,0.00,VWS V14.00,2013-03-22 12:30:00,
2013-03-22 07:35:00,30.3,27.2,30.01,ENE,68,4.0,9.0,88,0.00,,,0.00,VWS V14.00,2013-03-22 12:35:00,
2013-03-22 07:40:00,30.3,27.2,30.01,ENE,68,4.0,9.0,88,0.00,,,0.00,VWS V14.00,2013-03-22 12:40:00,
2013-03-22 07:45:00,30.3,27.2,30.01,ENE,68,4.0,9.0,88,0.00,,,0.00,VWS V14.00,2013-03-22 12:45:00,
2013-03-22 07:50:00,30.4,27.3,30.01,ENE,68,4.0,10.0,88,0.00,,,0.00,VWS V14.00,2013-03-22 12:50:00,
2013-03-22 07:55:00,30.5,27.4,30.01,ENE,68,4.0,9.0,88,0.00,,,0.00,VWS V14.00,2013-03-22 12:55:00,
2013-03-22 08:00:00,30.5,27.4,30.01,ENE,68,3.0,8.0,88,0.00,,,0.00,VWS V14.00,2013-03-22 13:00:00,
2013-03-22 08:05:00,30.6,27.5,30.01,ENE,68,5.0,9.0,88,0.00,,,0.00,VWS V14.00,2013-03-22 13:05:00,
2013-03-22 08:10:00,30.6,27.5,30.02,ENE,68,6.0,10.0,88,0.00,,,0.00,VWS V14.00,2013-03-22 13:10:00,
2013-03-22 08:15:00,30.7,27.6,30.02,ENE,68,6.0,13.0,88,0.00,,,0.00,VWS V14.00,2013-03-22 13:15:00,
2013-03-22 08:20:00,30.7,27.6,30.02,ENE,68,5.0,10.0,88,0.00,,,0.00,VWS V14.00,2013-03-22 13:20:00,
2013-03-22 08:25:00,30.8,27.7,30.02,ENE,68,5.0,8.0,88,0.00,,,0.00,VWS V14.00,2013-03-22 13:25:00,
2013-03-22 08:30:00,30.8,27.7,30.02,ENE,68,4.0,8.0,88,0.00,,,0.00,VWS V14.00,2013-03-22 13:30:00,
2013-03-22 08:35:00,30.9,27.8,30.02,ENE,68,5.0,8.0,88,0.00,,,0.00,VWS V14.00,2013-03-22 13:35:00,
2013-03-22 08:40:00,31.0,27.6,30.02,East,90,5.0,8.0,87,0.00,,,0.00,VWS V14.00,2013-03-22 13:40:00,
2013-03-22 08:45:00,31.0,27.6,30.03,ENE,68,4.0,8.0,87,0.00,,,0.00,VWS V14.00,2013-03-22 13:45:00,
2013-03-22 08:50:00,31.1,27.7,30.02,ENE,68,6.0,10.0,87,0.00,,,0.00,VWS V14.00,2013-03-22 13:50:00,
2013-03-22 08:55:00,31.1,27.7,30.02,ENE,68,5.0,7.0,87,0.00,,,0.00,VWS V14.00,2013-03-22 13:55:00,
2013-03-22 09:00:00,31.1,27.7,30.02,ENE,68,4.0,8.0,87,0.00,,,0.00,VWS V14.00,2013-03-22 14:00:00,
2013-03-22 09:05:00,31.2,27.8,30.03,ENE,68,4.0,7.0,87,0.00,,,0.00,VWS V14.00,2013-03-22 14:05:00,
2013-03-22 09:10:00,31.2,27.8,30.02,ENE,68,5.0,8.0,87,0.00,,,0.00,VWS V14.00,2013-03-22 14:10:00,
2013-03-22 09:15:00,31.3,27.9,30.02,ENE,68,4.0,8.0,87,0.00,,,0.00,VWS V14.00,2013-03-22 14:15:00,
2013-03-22 09:20:00,31.4,28.0,30.02,East,90,5.0,9.0,87,0.00,,,0.00,VWS V14.00,2013-03-22 14:20:00,
2013-03-22 09:25:00,31.4,28.0,30.02,ENE,68,3.0,8.0,87,0.00,,,0.00,VWS V14.00,2013-03-22 14:25:00,
2013-03-22 09:30:00,31.5,28.1,30.02,ENE,68,5.0,9.0,87,0.00,,,0.00,VWS V14.00,2013-03-22 14:30:00,
2013-03-22 09:35:00,31.5,28.1,30.01,ENE,68,6.0,10.0,87,0.00,,,0.00,VWS V14.00,2013-03-22 14:35:00,
2013-03-22 09:40:00,31.6,28.2,30.01,ENE,68,6.0,10.0,87,0.00,,,0.00,VWS V14.00,2013-03-22 14:40:00,
2013-03-22 09:45:00,31.7,28.3,30.00,ENE,68,6.0,13.0,87,0.00,,,0.00,VWS V14.00,2013-03-22 14:45:00,
2013-03-22 09:50:00,31.8,28.4,30.00,ENE,68,5.0,10.0,87,0.00,,,0.00,VWS V14.00,2013-03-22 14:50:00,
2013-03-22 09:55:00,31.9,28.2,30.01,ENE,68,6.0,13.0,86,0.00,,,0.00,VWS V14.00,2013-03-22 14:55:00,
2013-03-22 10:00:00,31.9,28.5,30.01,ENE,68,5.0,11.0,87,0.00,,,0.00,VWS V14.00,2013-03-22 15:00:00,
2013-03-22 10:05:00,31.9,28.5,30.01,ENE,68,5.0,13.0,87,0.00,,,0.00,VWS V14.00,2013-03-22 15:05:00,
2013-03-22 10:10:00,32.0,28.6,30.01,ENE,68,7.0,11.0,87,0.00,,,0.00,VWS V14.00,2013-03-22 15:10:00,
2013-03-22 10:15:00,32.1,28.7,30.01,ENE,68,5.0,11.0,87,0.00,,,0.00,VWS V14.00,2013-03-22 15:15:00,
2013-03-22 10:20:00,32.3,28.9,30.01,East,90,4.0,9.0,87,0.00,,,0.00,VWS V14.00,2013-03-22 15:20:00,
2013-03-22 10:25:00,32.4,29.0,30.01,ENE,68,3.0,9.0,87,0.00,,,0.00,VWS V14.00,2013-03-22 15:25:00,
2013-03-22 10:30:00,32.4,28.7,30.01,ENE,68,5.0,10.0,86,0.00,,,0.00,VWS V14.00,2013-03-22 15:30:00,
2013-03-22 10:35:00,32.5,28.8,30.01,ENE,68,3.0,10.0,86,0.00,,,0.00,VWS V14.00,2013-03-22 15:35:00,
2013-03-22 10:40:00,32.5,28.8,30.01,East,90,4.0,7.0,86,0.00,,,0.00,VWS V14.00,2013-03-22 15:40:00,
2013-03-22 10:45:00,32.6,28.9,30.01,East,90,6.0,10.0,86,0.00,,,0.00,VWS V14.00,2013-03-22 15:45:00,
2013-03-22 10:50:00,32.5,28.8,30.01,ENE,68,8.0,13.0,86,0.00,,,0.00,VWS V14.00,2013-03-22 15:50:00,
2013-03-22 10:55:00,32.5,28.8,30.01,East,90,6.0,9.0,86,0.00,,,0.00,VWS V14.00,2013-03-22 15:55:00,
2013-03-22 11:00:00,32.6,28.9,30.01,East,90,5.0,10.0,86,0.00,,,0.00,VWS V14.00,2013-03-22 16:00:00,
2013-03-22 11:05:00,32.8,29.4,30.02,ENE,68,3.0,7.0,87,0.00,,,0.00,VWS V14.00,2013-03-22 16:05:00,
2013-03-22 11:10:00,32.9,29.2,30.02,ENE,68,2.0,7.0,86,0.00,,,0.00,VWS V14.00,2013-03-22 16:10:00,
2013-03-22 11:15:00,33.0,29.3,30.02,ENE,68,3.0,7.0,86,0.00,,,0.00,VWS V14.00,2013-03-22 16:15:00,
2013-03-22 11:20:00,33.0,29.6,30.02,ENE,68,3.0,8.0,87,0.00,,,0.00,VWS V14.00,2013-03-22 16:20:00,
2013-03-22 11:25:00,33.1,29.7,30.01,East,90,4.0,10.0,87,0.00,,,0.00,VWS V14.00,2013-03-22 16:25:00,
2013-03-22 11:30:00,33.1,29.7,30.02,East,90,3.0,8.0,87,0.00,,,0.00,VWS V14.00,2013-03-22 16:30:00,
2013-03-22 11:35:00,33.1,29.9,30.02,East,90,2.0,7.0,88,0.00,,,0.00,VWS V14.00,2013-03-22 16:35:00,
2013-03-22 11:40:00,33.1,30.2,30.01,ENE,68,5.0,9.0,89,0.00,,,0.00,VWS V14.00,2013-03-22 16:40:00,
2013-03-22 11:45:00,33.2,30.3,30.01,ENE,68,4.0,7.0,89,0.00,,,0.00,VWS V14.00,2013-03-22 16:45:00,
2013-03-22 11:50:00,33.2,30.3,30.01,ENE,68,4.0,8.0,89,0.00,,,0.00,VWS V14.00,2013-03-22 16:50:00,
2013-03-22 11:55:00,33.1,30.2,30.01,ENE,68,5.0,11.0,89,0.00,,,0.00,VWS V14.00,2013-03-22 16:55:00,
2013-03-22 12:00:00,33.0,30.1,30.01,ENE,68,6.0,10.0,89,0.00,,,0.00,VWS V14.00,2013-03-22 17:00:00,
2013-03-22 12:05:00,33.0,30.4,30.01,ENE,68,6.0,10.0,90,0.00,,,0.00,VWS V14.00,2013-03-22 17:05:00,
2013-03-22 12:10:00,33.0,30.4,30.01,NE,45,4.0,9.0,90,0.00,,,0.00,VWS V14.00,2013-03-22 17:10:00,
2013-03-22 12:15:00,33.2,30.6,30.01,ENE,68,4.0,8.0,90,0.00,,,0.00,VWS V14.00,2013-03-22 17:15:00,
2013-03-22 12:20:00,33.2,30.6,30.02,ENE,68,2.0,5.0,90,0.00,,,0.00,VWS V14.00,2013-03-22 17:20:00,
2013-03-22 12:25:00,33.2,30.6,30.01,NE,45,5.0,10.0,90,0.00,,,0.00,VWS V14.00,2013-03-22 17:25:00,
2013-03-22 12:30:00,33.1,30.5,30.01,NE,45,5.0,8.0,90,0.00,,,0.00,VWS V14.00,2013-03-22 17:30:00,
2013-03-22 12:35:00,33.0,30.4,30.01,NE,45,4.0,8.0,90,0.00,,,0.00,VWS V14.00,2013-03-22 17:35:00,
2013-03-22 12:40:00,33.2,30.9,30.01,NE,45,1.0,5.0,91,0.00,,,0.00,VWS V14.00,2013-03-22 17:40:00,
2013-03-22 12:45:00,33.3,31.0,30.01,ENE,68,1.0,5.0,91,0.00,,,0.00,VWS V14.00,2013-03-22 17:45:00,
2013-03-22 12:50:00,33.5,31.2,30.01,ENE,68,3.0,8.0,91,0.00,,,0.00,VWS V14.00,2013-03-22 17:50:00,
2013-03-22 12:55:00,33.5,31.2,30.01,ENE,68,3.0,7.0,91,0.00,,,0.00,VWS V14.00,2013-03-22 17:55:00,
2013-03-22 13:00:00,33.6,31.3,30.01,NE,45,1.0,4.0,91,0.00,,,0.00,VWS V14.00,2013-03-22 18:00:00,
2013-03-22 13:05:00,33.7,31.4,30.02,ESE,112,2.0,5.0,91,0.00,,,0.00,VWS V14.00,2013-03-22 18:05:00,
2013-03-22 13:10:00,33.7,31.4,30.02,ENE,68,2.0,7.0,91,0.00,,,0.00,VWS V14.00,2013-03-22 18:10:00,
2013-03-22 13:15:00,33.7,31.4,30.02,ENE,68,1.0,3.0,91,0.00,,,0.00,VWS V14.00,2013-03-22 18:15:00,
2013-03-22 13:20:00,33.7,31.4,30.02,NE,45,2.0,5.0,91,0.00,,,0.00,VWS V14.00,2013-03-22 18:20:00,
2013-03-22 13:25:00,33.7,31.4,30.02,ENE,68,0.0,3.0,91,0.00,,,0.00,VWS V14.00,2013-03-22 18:25:00,
2013-03-22 13:30:00,33.8,31.5,30.02,NE,45,2.0,5.0,91,0.00,,,0.00,VWS V14.00,2013-03-22 18:30:00,
2013-03-22 13:35:00,33.8,31.5,30.01,ENE,68,2.0,6.0,91,0.00,,,0.00,VWS V14.00,2013-03-22 18:35:00,
2013-03-22 13:40:00,33.9,31.6,30.01,NE,45,2.0,6.0,91,0.01,,,0.01,VWS V14.00,2013-03-22 18:40:00,
2013-03-22 13:45:00,33.9,31.6,30.01,ENE,68,2.0,5.0,91,0.01,,,0.01,VWS V14.00,2013-03-22 18:45:00,
2013-03-22 13:50:00,33.9,31.6,30.01,NE,45,2.0,6.0,91,0.01,,,0.01,VWS V14.00,2013-03-22 18:50:00,
2013-03-22 13:55:00,33.9,31.6,30.01,NE,45,2.0,6.0,91,0.01,,,0.01,VWS V14.00,2013-03-22 18:55:00,
2013-03-22 14:00:00,33.9,31.6,30.01,ENE,68,2.0,3.0,91,0.01,,,0.01,VWS V14.00,2013-03-22 19:00:00,
2013-03-22 14:05:00,34.0,31.6,30.01,NNE,22,3.0,7.0,91,0.01,,,0.01,VWS V14.00,2013-03-22 19:05:00,
2013-03-22 14:10:00,34.0,31.6,30.01,NNE,22,2.0,5.0,91,0.01,,,0.01,VWS V14.00,2013-03-22 19:10:00,
2013-03-22 14:15:00,33.9,31.6,30.01,NE,45,2.0,5.0,91,0.01,,,0.01,VWS V14.00,2013-03-22 19:15:00,
2013-03-22 14:20:00,33.9,31.6,30.00,NNE,22,4.0,8.0,91,0.01,,,0.01,VWS V14.00,2013-03-22 19:20:00,
2013-03-22 14:25:00,34.0,31.6,30.00,NE,45,2.0,5.0,91,0.01,,,0.01,VWS V14.00,2013-03-22 19:25:00,
2013-03-22 14:30:00,34.1,31.8,29.99,ENE,68,2.0,7.0,91,0.01,,,0.01,VWS V14.00,2013-03-22 19:30:00,
2013-03-22 14:35:00,34.1,31.8,29.99,NE,45,2.0,6.0,91,0.02,,,0.02,VWS V14.00,2013-03-22 19:35:00,
2013-03-22 14:40:00,34.1,31.8,29.99,ENE,68,3.0,6.0,91,0.02,,,0.02,VWS V14.00,2013-03-22 19:40:00,
2013-03-22 14:45:00,34.2,31.9,29.99,ENE,68,4.0,8.0,91,0.01,,,0.02,VWS V14.00,2013-03-22 19:45:00,
2013-03-22 14:50:00,34.3,32.0,29.99,ENE,68,3.0,7.0,91,0.01,,,0.02,VWS V14.00,2013-03-22 19:50:00,
2013-03-22 14:55:00,34.4,32.0,29.99,ENE,68,2.0,6.0,91,0.01,,,0.02,VWS V14.00,2013-03-22 19:55:00,
2013-03-22 15:00:00,34.4,32.0,29.99,NE,45,3.0,8.0,91,0.01,,,0.02,VWS V14.00,2013-03-22 20:00:00,
2013-03-22 15:05:00,34.5,32.2,29.99,ENE,68,1.0,5.0,91,0.01,,,0.02,VWS V14.00,2013-03-22 20:05:00,
2013-03-22 15:10:00,34.5,32.2,29.99,ENE,68,4.0,7.0,91,0.01,,,0.02,VWS V14.00,2013-03-22 20:10:00,
2013-03-22 15:15:00,34.4,32.0,29.99,ENE,68,2.0,5.0,91,0.01,,,0.02,VWS V14.00,2013-03-22 20:15:00,
2013-03-22 15:20:00,34.5,32.2,29.99,ENE,68,2.0,4.0,91,0.01,,,0.02,VWS V14.00,2013-03-22 20:20:00,
2013-03-22 15:25:00,34.6,32.2,29.99,ENE,68,2.0,5.0,91,0.01,,,0.02,VWS V14.00,2013-03-22 20:25:00,
2013-03-22 15:30:00,34.4,31.8,29.99,ENE,68,3.0,5.0,90,0.01,,,0.02,VWS V14.00,2013-03-22 20:30:00,
2013-03-22 15:35:00,34.4,32.0,29.99,ENE,68,2.0,5.0,91,0.01,,,0.02,VWS V14.00,2013-03-22 20:35:00,
2013-03-22 15:40:00,34.5,32.2,30.00,NE,45,1.0,4.0,91,0.00,,,0.02,VWS V14.00,2013-03-22 20:40:00,
2013-03-22 15:45:00,34.6,32.2,29.99,ENE,68,3.0,7.0,91,0.00,,,0.02,VWS V14.00,2013-03-22 20:45:00,
2013-03-22 15:50:00,34.6,32.2,29.99,ENE,68,1.0,3.0,91,0.00,,,0.02,VWS V14.00,2013-03-22 20:50:00,
2013-03-22 15:55:00,34.6,32.2,29.99,NE,45,2.0,4.0,91,0.01,,,0.03,VWS V14.00,2013-03-22 20:55:00,
2013-03-22 16:00:00,34.7,32.3,30.00,NNE,22,1.0,3.0,91,0.01,,,0.03,VWS V14.00,2013-03-22 21:00:00,
2013-03-22 16:05:00,34.7,32.3,30.00,NE,45,2.0,4.0,91,0.01,,,0.03,VWS V14.00,2013-03-22 21:05:00,
2013-03-22 16:10:00,34.7,32.3,30.00,NE,45,1.0,4.0,91,0.01,,,0.03,VWS V14.00,2013-03-22 21:10:00,
2013-03-22 16:15:00,34.7,32.3,29.99,NE,45,3.0,5.0,91,0.01,,,0.03,VWS V14.00,2013-03-22 21:15:00,
2013-03-22 16:20:00,34.7,32.3,29.99,NE,45,3.0,5.0,91,0.01,,,0.03,VWS V14.00,2013-03-22 21:20:00,
2013-03-22 16:25:00,34.7,32.6,29.99,NE,45,2.0,5.0,92,0.01,,,0.03,VWS V14.00,2013-03-22 21:25:00,
2013-03-22 16:30:00,34.7,32.6,29.99,NE,45,3.0,6.0,92,0.01,,,0.03,VWS V14.00,2013-03-22 21:30:00,
2013-03-22 16:35:00,34.7,32.6,29.98,NE,45,3.0,7.0,92,0.01,,,0.03,VWS V14.00,2013-03-22 21:35:00,
2013-03-22 16:40:00,34.7,32.6,29.98,ENE,68,1.0,5.0,92,0.01,,,0.03,VWS V14.00,2013-03-22 21:40:00,
2013-03-22 16:45:00,34.9,32.8,29.98,ENE,68,2.0,5.0,92,0.01,,,0.03,VWS V14.00,2013-03-22 21:45:00,
2013-03-22 16:50:00,34.9,32.8,29.98,NE,45,5.0,9.0,92,0.01,,,0.03,VWS V14.00,2013-03-22 21:50:00,
2013-03-22 16:55:00,35.0,32.9,29.98,NE,45,3.0,7.0,92,0.01,,,0.03,VWS V14.00,2013-03-22 21:55:00,
2013-03-22 17:00:00,34.9,32.8,29.98,ENE,68,4.0,8.0,92,0.00,,,0.03,VWS V14.00,2013-03-22 22:00:00,
2013-03-22 17:05:00,34.9,32.8,29.98,ENE,68,3.0,7.0,92,0.00,,,0.03,VWS V14.00,2013-03-22 22:05:00,
2013-03-22 17:10:00,34.9,32.8,29.98,NE,45,5.0,9.0,92,0.00,,,0.03,VWS V14.00,2013-03-22 22:10:00,
2013-03-22 17:15:00,34.8,32.7,29.99,ENE,68,4.0,8.0,92,0.00,,,0.03,VWS V14.00,2013-03-22 22:15:00,
2013-03-22 17:20:00,34.8,32.7,29.99,ENE,68,2.0,6.0,92,0.00,,,0.03,VWS V14.00,2013-03-22 22:20:00,
2013-03-22 17:25:00,35.0,32.9,29.99,NE,45,3.0,8.0,92,0.00,,,0.03,VWS V14.00,2013-03-22 22:25:00,
2013-03-22 17:30:00,34.9,32.8,29.99,NE,45,3.0,7.0,92,0.00,,,0.03,VWS V14.00,2013-03-22 22:30:00,
2013-03-22 17:35:00,35.0,32.9,29.99,NE,45,2.0,5.0,92,0.00,,,0.03,VWS V14.00,2013-03-22 22:35:00,
2013-03-22 17:40:00,35.0,32.9,29.99,NE,45,4.0,7.0,92,0.01,,,0.04,VWS V14.00,2013-03-22 22:40:00,
2013-03-22 17:52:00,35.0,32.9,30.00,NE,45,3.0,5.0,92,0.01,,,0.04,VWS V14.00,2013-03-22 22:52:00,
2013-03-22 17:57:00,35.0,32.9,29.99,NE,45,5.0,7.0,92,0.01,,,0.04,VWS V14.00,2013-03-22 22:57:00,
2013-03-22 18:02:00,35.0,32.9,29.99,NE,41,0.0,3.0,92,0.01,,,0.04,VWS V14.00,2013-03-22 23:02:00,
2013-03-22 18:07:00,35.0,32.9,29.99,ENE,62,2.0,7.0,92,0.01,,,0.04,VWS V14.00,2013-03-22 23:07:00,
2013-03-22 18:12:00,35.0,32.9,29.99,ENE,59,2.0,3.0,92,0.01,,,0.04,VWS V14.00,2013-03-22 23:12:00,
2013-03-22 18:17:00,35.1,33.0,29.99,NNE,33,3.0,5.0,92,0.01,,,0.04,VWS V14.00,2013-03-22 23:17:00,
2013-03-22 18:22:00,35.1,33.0,29.99,NE,52,4.0,7.0,92,0.01,,,0.04,VWS V14.00,2013-03-22 23:22:00,
2013-03-22 18:27:00,35.1,33.0,29.99,NE,56,1.0,6.0,92,0.01,,,0.04,VWS V14.00,2013-03-22 23:27:00,
2013-03-22 18:32:00,35.1,33.0,29.99,NNE,25,3.0,7.0,92,0.01,,,0.04,VWS V14.00,2013-03-22 23:32:00,
2013-03-22 18:37:00,35.0,32.9,29.99,NE,39,3.0,6.0,92,0.01,,,0.04,VWS V14.00,2013-03-22 23:37:00,
2013-03-22 18:42:00,35.0,32.9,29.98,ENE,58,7.0,9.0,92,0.00,,,0.04,VWS V14.00,2013-03-22 23:42:00,
2013-03-22 18:47:00,34.9,32.5,29.99,ENE,60,2.0,5.0,91,0.00,,,0.04,VWS V14.00,2013-03-22 23:47:00,
2013-03-22 18:52:00,34.9,32.5,29.99,ENE,68,3.0,7.0,91,0.00,,,0.04,VWS V14.00,2013-03-22 23:52:00,
2013-03-22 18:57:00,34.9,32.5,29.99,NE,40,1.0,5.0,91,0.00,,,0.04,VWS V14.00,2013-03-22 23:57:00,
2013-03-22 19:02:00,34.9,32.5,29.99,ENE,66,3.0,7.0,91,0.00,,,0.04,VWS V14.00,2013-03-23 00:02:00,
2013-03-22 19:07:00,34.9,32.5,30.00,NE,51,1.0,5.0,91,0.00,,,0.04,VWS V14.00,2013-03-23 00:07:00,
2013-03-22 19:12:00,34.9,32.5,30.00,NE,45,2.0,8.0,91,0.00,,,0.04,VWS V14.00,2013-03-23 00:12:00,
2013-03-22 19:17:00,34.8,32.5,30.00,ENE,62,2.0,8.0,91,0.00,,,0.04,VWS V14.00,2013-03-23 00:17:00,
2013-03-22 19:22:00,34.8,32.5,30.00,ENE,63,3.0,6.0,91,0.00,,,0.04,VWS V14.00,2013-03-23 00:22:00,
2013-03-22 19:27:00,34.8,32.5,30.00,ENE,64,1.0,5.0,91,0.00,,,0.04,VWS V14.00,2013-03-23 00:27:00,
2013-03-22 19:32:00,34.7,32.3,30.00,NE,47,4.0,5.0,91,0.00,,,0.04,VWS V14.00,2013-03-23 00:32:00,
2013-03-22 19:37:00,34.8,32.5,30.01,NE,41,1.0,7.0,91,0.00,,,0.04,VWS V14.00,2013-03-23 00:37:00,
2013-03-22 19:42:00,34.7,32.3,30.01,NE,41,2.0,8.0,91,0.00,,,0.04,VWS V14.00,2013-03-23 00:42:00,
2013-03-22 19:47:00,34.8,32.5,30.01,NE,56,1.0,4.0,91,0.00,,,0.04,VWS V14.00,2013-03-23 00:47:00,
2013-03-22 19:52:00,34.7,32.3,30.01,NE,54,2.0,3.0,91,0.00,,,0.04,VWS V14.00,2013-03-23 00:52:00,
2013-03-22 19:57:00,34.8,32.5,30.01,NE,54,0.0,2.0,91,0.00,,,0.04,VWS V14.00,2013-03-23 00:57:00,
2013-03-22 20:02:00,34.8,32.5,30.02,NE,52,3.0,4.0,91,0.00,,,0.04,VWS V14.00,2013-03-23 01:02:00,
2013-03-22 20:07:00,34.8,32.5,30.02,NE,52,0.0,2.0,91,0.00,,,0.04,VWS V14.00,2013-03-23 01:07:00,
2013-03-22 20:12:00,34.8,32.5,30.02,NE,52,1.0,2.0,91,0.00,,,0.04,VWS V14.00,2013-03-23 01:12:00,
2013-03-22 20:17:00,34.7,32.3,30.02,NE,52,2.0,3.0,91,0.00,,,0.04,VWS V14.00,2013-03-23 01:17:00,
2013-03-22 20:22:00,34.7,32.3,30.02,NE,52,2.0,3.0,91,0.00,,,0.04,VWS V14.00,2013-03-23 01:22:00,
2013-03-22 20:27:00,34.7,32.3,30.01,NE,52,1.0,3.0,91,0.00,,,0.04,VWS V14.00,2013-03-23 01:27:00,
2013-03-22 20:32:00,34.7,32.3,30.02,NE,51,1.0,3.0,91,0.00,,,0.04,VWS V14.00,2013-03-23 01:32:00,
2013-03-22 20:37:00,34.7,32.3,30.02,NE,43,0.0,2.0,91,0.00,,,0.04,VWS V14.00,2013-03-23 01:37:00,
2013-03-22 20:42:00,34.7,32.3,30.02,NE,43,2.0,3.0,91,0.00,,,0.04,VWS V14.00,2013-03-23 01:42:00,
2013-03-22 20:47:00,34.7,32.3,30.02,NE,54,2.0,4.0,91,0.00,,,0.04,VWS V14.00,2013-03-23 01:47:00,
2013-03-22 20:52:00,34.7,32.3,30.02,NE,47,1.0,3.0,91,0.00,,,0.04,VWS V14.00,2013-03-23 01:52:00,
2013-03-22 20:57:00,34.7,32.3,30.02,NE,51,2.0,4.0,91,0.00,,,0.04,VWS V14.00,2013-03-23 01:57:00,
2013-03-22 21:02:00,34.7,32.3,30.02,NE,47,2.0,3.0,91,0.00,,,0.04,VWS V14.00,2013-03-23 02:02:00,
2013-03-22 21:07:00,34.7,32.3,30.02,NE,52,2.0,4.0,91,0.00,,,0.04,VWS V14.00,2013-03-23 02:07:00,
2013-03-22 21:12:00,34.8,32.5,30.01,ENE,57,0.0,5.0,91,0.00,,,0.04,VWS V14.00,2013-03-23 02:12:00,
2013-03-22 21:15:00,34.7,32.3,30.01,NE,45,2.0,5.0,91,0.00,,,0.04,VWS V14.00,2013-03-23 02:15:00,
2013-03-22 21:20:00,34.7,32.3,30.01,NE,45,2.0,5.0,91,0.00,,,0.04,VWS V14.00,2013-03-23 02:20:00,
2013-03-22 21:25:00,34.7,32.3,30.01,NE,45,3.0,8.0,91,0.00,,,0.04,VWS V14.00,2013-03-23 02:25:00,
2013-03-22 21:30:00,34.7,32.1,30.02,NE,45,2.0,5.0,90,0.00,,,0.04,VWS V14.00,2013-03-23 02:30:00,
2013-03-22 21:35:00,34.8,32.2,30.02,NE,45,2.0,5.0,90,0.00,,,0.04,VWS V14.00,2013-03-23 02:35:00,
2013-03-22 21:40:00,34.8,32.2,30.02,NE,45,1.0,4.0,90,0.00,,,0.04,VWS V14.00,2013-03-23 02:40:00,
2013-03-22 21:45:00,34.7,32.1,30.02,NE,45,1.0,3.0,90,0.00,,,0.04,VWS V14.00,2013-03-23 02:45:00,
2013-03-22 21:50:00,34.7,32.3,30.02,NE,45,2.0,5.0,91,0.00,,,0.04,VWS V14.00,2013-03-23 02:50:00,
2013-03-22 21:55:00,34.8,32.5,30.02,NE,45,2.0,5.0,91,0.00,,,0.04,VWS V14.00,2013-03-23 02:55:00,
2013-03-22 22:00:00,34.8,32.5,30.02,NE,45,3.0,5.0,91,0.00,,,0.04,VWS V14.00,2013-03-23 03:00:00,
2013-03-22 22:05:00,34.8,32.2,30.02,NE,45,2.0,4.0,90,0.00,,,0.04,VWS V14.00,2013-03-23 03:05:00,
2013-03-22 22:10:00,34.7,32.1,30.02,NNE,22,2.0,5.0,90,0.00,,,0.04,VWS V14.00,2013-03-23 03:10:00,
2013-03-22 22:15:00,34.7,32.1,30.02,NNE,22,1.0,3.0,90,0.00,,,0.04,VWS V14.00,2013-03-23 03:15:00,
2013-03-22 22:20:00,34.7,32.1,30.02,NNE,22,3.0,6.0,90,0.00,,,0.04,VWS V14.00,2013-03-23 03:20:00,
2013-03-22 22:25:00,34.7,32.1,30.02,NNE,22,3.0,7.0,90,0.00,,,0.04,VWS V14.00,2013-03-23 03:25:00,
2013-03-22 22:30:00,34.7,31.8,30.02,NE,45,3.0,8.0,89,0.00,,,0.04,VWS V14.00,2013-03-23 03:30:00,
2013-03-22 22:35:00,34.6,31.7,30.03,NNE,22,2.0,6.0,89,0.00,,,0.04,VWS V14.00,2013-03-23 03:35:00,
2013-03-22 22:40:00,34.6,31.4,30.03,NNE,22,2.0,5.0,88,0.00,,,0.04,VWS V14.00,2013-03-23 03:40:00,
2013-03-22 22:45:00,34.6,31.4,30.03,NNE,22,1.0,5.0,88,0.00,,,0.04,VWS V14.00,2013-03-23 03:45:00,
2013-03-22 22:50:00,34.6,31.4,30.03,NNE,22,1.0,4.0,88,0.00,,,0.04,VWS V14.00,2013-03-23 03:50:00,
2013-03-22 22:55:00,34.5,31.3,30.03,NNE,22,0.0,2.0,88,0.00,,,0.04,VWS V14.00,2013-03-23 03:55:00,
2013-03-22 23:00:00,34.5,31.3,30.04,NNE,22,2.0,8.0,88,0.00,,,0.04,VWS V14.00,2013-03-23 04:00:00,
2013-03-22 23:05:00,34.5,31.3,30.04,North,0,3.0,6.0,88,0.00,,,0.04,VWS V14.00,2013-03-23 04:05:00,
2013-03-22 23:10:00,34.4,31.2,30.04,NNE,22,3.0,7.0,88,0.00,,,0.04,VWS V14.00,2013-03-23 04:10:00,
2013-03-22 23:15:00,34.4,30.9,30.04,NNE,22,4.0,7.0,87,0.00,,,0.04,VWS V14.00,2013-03-23 04:15:00,
2013-03-22 23:20:00,34.3,30.8,30.04,NNE,22,3.0,6.0,87,0.00,,,0.04,VWS V14.00,2013-03-23 04:20:00,
2013-03-22 23:25:00,34.3,30.8,30.04,NNE,22,4.0,7.0,87,0.00,,,0.04,VWS V14.00,2013-03-23 04:25:00,
2013-03-22 23:30:00,34.2,30.7,30.04,NE,45,0.0,3.0,87,0.00,,,0.04,VWS V14.00,2013-03-23 04:30:00,
2013-03-22 23:35:00,34.2,30.7,30.04,NNE,22,3.0,5.0,87,0.00,,,0.04,VWS V14.00,2013-03-23 04:35:00,
2013-03-22 23:40:00,34.2,30.5,30.05,NNE,22,3.0,7.0,86,0.00,,,0.04,VWS V14.00,2013-03-23 04:40:00,
2013-03-22 23:45:00,34.1,30.4,30.05,NNE,22,2.0,6.0,86,0.00,,,0.04,VWS V14.00,2013-03-23 04:45:00,
2013-03-22 23:50:00,34.1,30.4,30.05,NNE,22,1.0,5.0,86,0.00,,,0.04,VWS V14.00,2013-03-23 04:50:00,
2013-03-22 23:55:00,34.1,30.6,30.05,NNE,22,3.0,6.0,87,0.00,,,0.04,VWS V14.00,2013-03-23 04:55:00,